NODES2

Last updated on May 20, 2016, 9:36 a.m. UTC

1 41478U 98067HY  16141.19443198  .00020578  00000-0  30222-3 0  9990
2 41478  51.6414 197.6609 0003374  18.7216  81.9924 15.55461455   483

Satellite is not in orbit.